TimeEDT,TemperatureF,Dew PointF,Humidity,Sea Level PressureIn,VisibilityMPH,Wind Direction,Wind SpeedMPH,Gust SpeedMPH,PrecipitationIn,Events,Conditions,WindDirDegrees,DateUTC
12:15 AM,68.9,58.8,70,30.29,10.0,SE,5.8,-,N/A,,Overcast,140,2013-06-21 04:15:00
12:35 AM,68.4,57.7,69,30.30,10.0,Calm,Calm,-,N/A,,Overcast,0,2013-06-21 04:35:00
12:55 AM,68.0,57.9,70,30.30,10.0,SSE,6.9,-,N/A,,Overcast,160,2013-06-21 04:55:00
1:15 AM,67.3,57.2,70,30.31,10.0,SSE,4.6,-,N/A,,Overcast,160,2013-06-21 05:15:00
1:35 AM,66.6,56.7,70,30.31,10.0,South,5.8,-,N/A,,Overcast,180,2013-06-21 05:35:00
1:55 AM,66.4,55.0,67,30.31,10.0,South,5.8,-,N/A,,Overcast,190,2013-06-21 05:55:00
2:15 AM,66.2,54.0,65,30.30,10.0,South,4.6,-,N/A,,Overcast,180,2013-06-21 06:15:00
2:35 AM,64.9,53.2,66,30.29,10.0,South,5.8,-,N/A,,Scattered Clouds,170,2013-06-21 06:35:00
2:55 AM,64.6,52.7,65,30.29,10.0,SE,3.5,-,N/A,,Clear,130,2013-06-21 06:55:00
3:15 AM,63.9,53.1,68,30.29,10.0,Calm,Calm,-,N/A,,Clear,0,2013-06-21 07:15:00
3:35 AM,61.9,53.4,74,30.29,10.0,Calm,Calm,-,N/A,,Clear,0,2013-06-21 07:35:00
3:55 AM,60.4,54.1,80,30.29,10.0,Calm,Calm,-,N/A,,Clear,0,2013-06-21 07:55:00
4:15 AM,60.4,53.6,78,30.29,10.0,Calm,Calm,-,N/A,,Clear,0,2013-06-21 08:15:00
4:35 AM,58.1,53.8,86,30.29,10.0,Calm,Calm,-,N/A,,Clear,0,2013-06-21 08:35:00
4:55 AM,58.6,53.8,84,30.29,10.0,Calm,Calm,-,N/A,,Clear,0,2013-06-21 08:55:00
5:15 AM,57.6,53.6,87,30.29,10.0,Calm,Calm,-,N/A,,Clear,0,2013-06-21 09:15:00
5:35 AM,58.3,52.9,82,30.30,10.0,Calm,Calm,-,N/A,,Clear,0,2013-06-21 09:35:00
5:55 AM,57.2,53.1,86,30.30,10.0,Calm,Calm,-,N/A,,Clear,0,2013-06-21 09:55:00
6:15 AM,57.4,53.2,86,30.31,10.0,Calm,Calm,-,N/A,,Clear,0,2013-06-21 10:15:00
6:35 AM,58.3,53.2,83,30.31,10.0,Calm,Calm,-,N/A,,Clear,0,2013-06-21 10:35:00
6:55 AM,58.3,54.0,86,30.32,10.0,Calm,Calm,-,N/A,,Clear,0,2013-06-21 10:55:00
7:15 AM,60.8,52.9,75,30.32,10.0,Calm,Calm,-,N/A,,Clear,0,2013-06-21 11:15:00
7:35 AM,62.6,50.7,65,30.32,10.0,Calm,Calm,-,N/A,,Clear,0,2013-06-21 11:35:00
7:55 AM,63.3,52.0,66,30.32,10.0,Calm,Calm,-,N/A,,Clear,0,2013-06-21 11:55:00
8:15 AM,64.6,53.4,67,30.33,10.0,Calm,Calm,-,N/A,,Clear,0,2013-06-21 12:15:00
8:35 AM,66.0,54.5,66,30.33,10.0,Calm,Calm,-,N/A,,Clear,0,2013-06-21 12:35:00
8:55 AM,67.8,55.8,65,30.32,10.0,Calm,Calm,-,N/A,,Clear,0,2013-06-21 12:55:00
9:15 AM,69.8,57.2,64,30.32,10.0,SW,5.8,-,N/A,,Clear,220,2013-06-21 13:15:00
9:35 AM,70.7,58.1,64,30.31,10.0,SW,3.5,-,N/A,,Clear,230,2013-06-21 13:35:00
9:55 AM,71.8,59.7,66,30.31,10.0,South,4.6,-,N/A,,Clear,170,2013-06-21 13:55:00
10:15 AM,72.7,59.9,64,30.31,10.0,SW,3.5,-,N/A,,Clear,230,2013-06-21 14:15:00
10:35 AM,73.9,59.9,61,30.31,10.0,SE,3.5,-,N/A,,Clear,140,2013-06-21 14:35:00
10:55 AM,74.5,60.8,62,30.31,10.0,SW,3.5,-,N/A,,Clear,230,2013-06-21 14:55:00
11:15 AM,76.3,61.2,59,30.31,10.0,South,5.8,-,N/A,,Clear,190,2013-06-21 15:15:00
11:35 AM,76.3,60.1,57,30.30,10.0,South,5.8,-,N/A,,Clear,180,2013-06-21 15:35:00
11:55 AM,77.5,60.1,55,30.31,10.0,SE,5.8,-,N/A,,Clear,140,2013-06-21 15:55:00
12:15 PM,77.2,59.2,54,30.32,10.0,SSE,5.8,-,N/A,,Clear,150,2013-06-21 16:15:00
12:35 PM,77.9,58.8,52,30.31,10.0,Calm,Calm,-,N/A,,Clear,0,2013-06-21 16:35:00
12:55 PM,78.3,58.8,51,30.31,10.0,SW,5.8,-,N/A,,Clear,220,2013-06-21 16:55:00
1:15 PM,78.8,57.9,49,30.31,10.0,ESE,5.8,-,N/A,,Clear,120,2013-06-21 17:15:00
1:35 PM,79.7,57.9,47,30.31,10.0,SSE,5.8,-,N/A,,Clear,160,2013-06-21 17:35:00
1:55 PM,79.3,57.6,47,30.29,10.0,ESE,6.9,-,N/A,,Clear,110,2013-06-21 17:55:00
2:15 PM,79.7,58.5,48,30.29,10.0,ESE,5.8,-,N/A,,Scattered Clouds,120,2013-06-21 18:15:00
2:35 PM,80.1,58.8,48,30.29,10.0,SE,6.9,-,N/A,,Clear,130,2013-06-21 18:35:00
2:55 PM,80.1,59.0,48,30.30,7.0,ESE,9.2,-,N/A,,Clear,110,2013-06-21 18:55:00
3:15 PM,80.6,57.9,46,30.30,10.0,SSE,6.9,-,N/A,,Clear,150,2013-06-21 19:15:00
3:35 PM,80.1,57.9,47,30.28,10.0,SSE,9.2,-,N/A,,Clear,150,2013-06-21 19:35:00
3:55 PM,80.1,57.6,46,30.29,10.0,SE,5.8,-,N/A,,Clear,140,2013-06-21 19:55:00
4:15 PM,79.9,56.8,45,30.28,10.0,ESE,5.8,-,N/A,,Clear,110,2013-06-21 20:15:00
4:35 PM,79.7,55.9,44,30.28,10.0,ESE,4.6,-,N/A,,Clear,120,2013-06-21 20:35:00
4:55 PM,80.4,56.8,44,30.27,10.0,SE,6.9,-,N/A,,Clear,140,2013-06-21 20:55:00
5:15 PM,79.7,55.9,44,30.26,10.0,SE,9.2,-,N/A,,Clear,130,2013-06-21 21:15:00
5:35 PM,79.3,56.5,45,30.26,10.0,SE,5.8,-,N/A,,Clear,140,2013-06-21 21:35:00
5:55 PM,79.5,57.0,46,30.26,10.0,SE,6.9,-,N/A,,Clear,140,2013-06-21 21:55:00
6:15 PM,78.4,56.1,46,30.26,10.0,SE,5.8,-,N/A,,Clear,130,2013-06-21 22:15:00
6:35 PM,78.4,56.5,47,30.26,10.0,SE,4.6,-,N/A,,Clear,130,2013-06-21 22:35:00
6:55 PM,77.9,56.7,48,30.27,10.0,SE,5.8,-,N/A,,Clear,130,2013-06-21 22:55:00
7:15 PM,77.0,56.3,49,30.27,10.0,SE,5.8,-,N/A,,Clear,140,2013-06-21 23:15:00
7:35 PM,76.3,56.3,50,30.27,10.0,SE,5.8,-,N/A,,Clear,140,2013-06-21 23:35:00
7:55 PM,75.2,57.9,55,30.27,10.0,SSE,4.6,-,N/A,,Clear,150,2013-06-21 23:55:00
8:15 PM,73.9,57.9,57,30.27,10.0,SSE,3.5,-,N/A,,Clear,150,2013-06-22 00:15:00
8:35 PM,72.7,57.9,60,30.27,10.0,Calm,Calm,-,N/A,,Clear,0,2013-06-22 00:35:00
8:55 PM,71.4,57.7,62,30.27,10.0,Calm,Calm,-,N/A,,Clear,0,2013-06-22 00:55:00
9:15 PM,68.7,58.3,69,30.28,10.0,Calm,Calm,-,N/A,,Clear,0,2013-06-22 01:15:00
9:35 PM,68.9,57.6,67,30.28,10.0,Calm,Calm,-,N/A,,Clear,0,2013-06-22 01:35:00
9:55 PM,66.7,57.9,73,30.29,10.0,Calm,Calm,-,N/A,,Clear,0,2013-06-22 01:55:00
10:15 PM,64.6,58.3,80,30.29,10.0,Calm,Calm,-,N/A,,Clear,0,2013-06-22 02:15:00
10:35 PM,66.9,56.1,68,30.29,10.0,Calm,Calm,-,N/A,,Clear,0,2013-06-22 02:35:00
10:55 PM,67.3,55.9,67,30.29,10.0,Calm,Calm,-,N/A,,Clear,0,2013-06-22 02:55:00
11:15 PM,64.6,55.9,74,30.29,10.0,Calm,Calm,-,N/A,,Clear,0,2013-06-22 03:15:00
11:35 PM,62.1,56.8,83,30.29,10.0,Calm,Calm,-,N/A,,Clear,0,2013-06-22 03:35:00
11:55 PM,63.7,55.6,75,30.30,10.0,Calm,Calm,-,N/A,,Scattered Clouds,0,2013-06-22 03:55:00